Weather History for Truckee-Tahoe, CA

Change the Weather History Date:

Monday, October 27, 2014

  Actual Average Record
Temperature  
Mean Temperature 37 °F -  
Max Temperature 57 °F 58 °F 74 °F (1959)
Min Temperature 17 °F 26 °F 11 °F (1970)
Degree Days  
Heating Degree Days 28    
Moisture  
Dew Point 26 °F    
Average Humidity 81    
Maximum Humidity 100    
Minimum Humidity 25    
Precipitation  
Precipitation 0.00 in - - ()
Sea Level Pressure  
Sea Level Pressure 30.14 in    
Wind  
Wind Speed 1 mph (SE)    
Max Wind Speed 8 mph    
Max Gust Speed -    
Visibility 9 miles    
Events Fog    
Averages and records for this station are not official NWS values.
T = Trace of Precipitation, MM = Missing Value Source: NWS Daily Summary

Daily Weather History Graph

Daily Weather History Graph

Search for Another Location

Airport:

Trip Planner

Search our weather history database for the weather conditions in past years. The results will help you decide how hot, cold, wet, or windy it might be!

Date:

Astronomy

Oct. 27, 2014 Rise Set
Actual Time 7:23 AM PDT 6:05 PM PDT
Civil Twilight 6:55 AM PDT 6:32 PM PDT
Nautical Twilight 6:24 AM PDT 7:04 PM PDT
Astronomical Twilight 5:52 AM PDT 7:35 PM PDT
Moon 11:02 AM PDT (10/27) 9:16 PM PDT (10/27)
Length of Visible Light 11h 37m
Length of Day
10h 42m
Waxing Crescent, 16% of the Moon is Illuminated
Oct 27
Waxing Crescent
Oct 30
First Quarter
Nov 6
Full
Nov 14
Last Quarter
Nov 22
New

Hourly Weather History & Observations

Time (PDT) Temp. Windchill Dew Point Humidity Pressure Visibility Wind Dir Wind Speed Gust Speed Precip Events Conditions
12:15 AM 26.6 °F - 24.8 °F 93% 30.15 in 10.0 mi Calm Calm - N/A   Clear
12:35 AM 26.6 °F - 23.0 °F 86% 30.14 in 10.0 mi Calm Calm - N/A   Clear
12:55 AM 26.6 °F - 24.8 °F 93% 30.14 in 10.0 mi Calm Calm - N/A   Clear
1:15 AM 23.0 °F - 23.0 °F 100% 30.14 in 10.0 mi Calm Calm - N/A   Clear
1:35 AM 26.6 °F - 23.0 °F 86% 30.14 in 10.0 mi Calm Calm - N/A   Clear
1:55 AM 26.6 °F - 23.0 °F 86% 30.14 in 10.0 mi Calm Calm - N/A   Clear
2:15 AM 26.6 °F - 23.0 °F 86% 30.14 in 10.0 mi Calm Calm - N/A   Clear
2:35 AM 23.0 °F - 23.0 °F 100% 30.15 in 10.0 mi Calm Calm - N/A   Clear
2:55 AM 26.6 °F - 24.8 °F 93% 30.15 in 10.0 mi Calm Calm - N/A   Clear
3:15 AM 24.8 °F - 24.8 °F 100% 30.14 in 10.0 mi Calm Calm - N/A   Clear
3:35 AM 24.8 °F - 23.0 °F 93% 30.14 in 5.0 mi Calm Calm - N/A   Clear
3:55 AM 23.0 °F - 23.0 °F 100% 30.14 in 2.0 mi Calm Calm - N/A   Clear
4:15 AM 24.8 °F - 23.0 °F 93% 30.14 in 10.0 mi Calm Calm - N/A   Clear
4:35 AM 23.0 °F - 21.2 °F 93% 30.14 in 1.2 mi Calm Calm - N/A   Mist
4:55 AM 24.8 °F - 23.0 °F 93% 30.14 in 10.0 mi Calm Calm - N/A   Clear
5:15 AM 23.0 °F - 21.2 °F 93% 30.14 in 10.0 mi Calm Calm - N/A   Clear
5:35 AM 21.2 °F - 21.2 °F 100% 30.14 in 5.0 mi Calm Calm - N/A   Clear
5:55 AM 23.0 °F - 21.2 °F 93% 30.13 in 7.0 mi Calm Calm - N/A   Clear
6:15 AM 23.0 °F - 21.2 °F 93% 30.14 in 10.0 mi Calm Calm - N/A   Clear
6:35 AM 23.0 °F - 21.2 °F 93% 30.14 in 0.5 mi Calm Calm - N/A Fog Light Freezing Fog
6:55 AM 17.6 °F - 17.6 °F 100% 30.14 in 10.0 mi Calm Calm - N/A Fog Patches of Fog
7:45 AM 21.2 °F 16.4 °F 19.4 °F 93% 30.13 in 10.0 mi East 3.5 mph - N/A Fog Patches of Fog
8:45 AM 26.6 °F - 24.8 °F 93% 30.15 in 10.0 mi Calm Calm - N/A   Mostly Cloudy
9:45 AM 30.2 °F - 26.6 °F 86% 30.14 in 10.0 mi Calm Calm - N/A   Mostly Cloudy
10:45 AM 37.4 °F - 24.8 °F 60% 30.14 in 10.0 mi Calm Calm - N/A   Mostly Cloudy
11:45 AM 44.6 °F - 26.6 °F 49% 30.13 in 10.0 mi Calm Calm - N/A   Mostly Cloudy
12:45 PM 48.2 °F - 28.4 °F 46% 30.10 in 10.0 mi Calm Calm - N/A   Mostly Cloudy
1:45 PM 53.6 °F - 26.6 °F 35% 30.08 in 10.0 mi NNE 5.8 mph - N/A   Mostly Cloudy
2:45 PM 55.4 °F - 24.8 °F 31% 30.07 in 10.0 mi Calm Calm - N/A   Mostly Cloudy
4:50 PM 57.2 °F - 21.2 °F 25% 30.07 in 10.0 mi WNW 8.1 mph - N/A   Mostly Cloudy
5:45 PM 53.6 °F - 30.2 °F 41% 30.09 in 10.0 mi West 8.1 mph - N/A   Scattered Clouds
6:15 PM 48.2 °F - 33.8 °F 58% 30.10 in 10.0 mi West 6.9 mph - N/A   Clear
6:35 PM 44.6 °F 43.1 °F 32.0 °F 61% 30.11 in 10.0 mi SE 3.5 mph - N/A   Clear
6:55 PM 41.0 °F 39.0 °F 30.2 °F 65% 30.11 in 10.0 mi SE 3.5 mph - N/A   Clear
7:15 PM 39.2 °F 37.0 °F 30.2 °F 70% 30.13 in 10.0 mi South 3.5 mph - N/A   Clear
7:35 PM 37.4 °F - 30.2 °F 75% 30.13 in 10.0 mi Calm Calm - N/A   Clear
7:55 PM 41.0 °F - 32.0 °F 70% 30.13 in 10.0 mi Calm Calm - N/A   Clear
8:15 PM 37.4 °F - 30.2 °F 75% 30.14 in 10.0 mi Calm Calm - N/A   Clear
8:35 PM 33.8 °F - 28.4 °F 81% 30.14 in 10.0 mi Calm Calm - N/A   Clear
8:55 PM 35.6 °F - 30.2 °F 81% 30.15 in 10.0 mi Calm Calm - N/A   Clear
9:15 PM 33.8 °F 29.6 °F 28.4 °F 81% 30.16 in 10.0 mi SE 4.6 mph - N/A   Clear
9:35 PM 33.8 °F - 28.4 °F 81% 30.16 in 10.0 mi Calm Calm - N/A   Clear
9:55 PM 32.0 °F - 30.2 °F 93% 30.17 in 10.0 mi Calm Calm - N/A   Clear
10:15 PM 33.8 °F - 30.2 °F 87% 30.17 in 10.0 mi Calm Calm - N/A   Clear
10:35 PM 32.0 °F - 30.2 °F 93% 30.18 in 10.0 mi Calm Calm - N/A   Clear
10:55 PM 32.0 °F - 30.2 °F 93% 30.18 in 10.0 mi Calm Calm - N/A   Clear
11:15 PM 30.2 °F 26.7 °F 28.4 °F 93% 30.19 in 10.0 mi ESE 3.5 mph - N/A   Clear
11:35 PM 30.2 °F - 28.4 °F 93% 30.19 in 10.0 mi Calm Calm - N/A   Clear
11:55 PM 30.2 °F - 28.4 °F 93% 30.19 in 10.0 mi Calm Calm - N/A   Clear